Voltar ao catálogo

STARLINK-1403

AtivoComunicaçõesVLEO
NORAD 45701·PAYLOAD·🇺🇸 United States

Lançado Jun 4, 2020 de Cape Canaveral Space Force Station

Loading…

Próximas Passagens (próximas 24 horas)

TLE

AtualizadoSource: CelesTrak SupGP

Época: Sep 14, 2026, 19:35 UTC

1 45701C 20035AW  26257.81645833  .00077226  00000+0  17713-2 0  2578
2 45701  53.1508 232.0376 0002957  69.1345  48.7893 15.42112678    12

Acompanhe STARLINK-1403 em tempo real com AllMySat

Download on the App Store